Zurück zum Katalog

STARLINK-6046

AktivKommunikationVLEO
NORAD 56792·PAYLOAD·🇺🇸 United States

Gestartet May 31, 2023 von Vandenberg Space Force Base

Loading…

Nächste Überflüge (nächste 24 Stunden)

TLE

AktuellSource: CelesTrak SupGP

Epoche: Sep 14, 2026, 21:15 UTC

1 56792C 23078AB  26257.88590278  .00031874  00000+0  26711-2 0  2576
2 56792  70.0012 227.5729 0002955 268.3968 185.5713 14.98316579    12

Verfolge STARLINK-6046 in Echtzeit mit AllMySat

Download on the App Store